Tracking 19563 objects as of 20-Mar-2019
HD Live streaming from Space Station
objects crossing your sky now

LEMUR 2 ALEXANDER

Track LEMUR 2 ALEXANDER now!
10-day predictions
LEMUR 2 ALEXANDER is classified as:


NORAD ID: 43559
Int'l Code: 2018-046F
Perigee: 480.4 km
Apogee: 491.8 km
Inclination: 51.6 °
Period: 94.2 minutes
Semi major axis: 6857 km
RCS: Unknown
Launch date: May 21, 2018
Source: United States (US)
Launch site: WALLOPS ISLAND (WLPIS)
aabbcc
Your satellite tracking list
Your tracking list is empty




NASA's NSSDC Master Catalog

Two Line Element Set (TLE):
1 43559U 18046F   19078.59649946 +.00001679 +00000-0 +71373-4 0  9990
2 43559 051.6417 132.9868 0008295 104.7429 255.4471 15.28955586037406
Source of the keplerian elements: AFSPC